Location: Franzen
(48.6167°N, 15.3833°E)
Time: 04:53:01
(UTC+00:00)

Altair - Pass Details

Date: 13 August 2021
Orbit: 1501 x 1682 km, 47.2° (Epoch: 21 September)

Event Time Altitude Azimuth Distance (km) Brightness Sun altitude
Rises 03:08:20 0° 288° (WNW) 4,718 9.7 -6.8°
Reaches altitude 10° 03:11:33 10° 283° (WNW) 3,712 9.1 -6.3°
Maximum altitude 03:20:18 48° 214° (SSW) 1,905 7.7 -5.1°
Drops below altitude 10° 03:28:53 10° 143° (SE) 3,645 9.6 -3.8°
Sets 03:32:02 0° 138° (SE) 4,627 10.2 -3.4°
